Satellite: FALCON
Catalog number: 30776
Epoch time: 10238.66029448
Element set: 900
Inclination: 035.4348 deg
RA of node: 336.4022 deg
Eccentricity: 0.0001066
Arg of perigee: 013.2516 deg
Mean anomaly: 346.8228 deg
Mean motion: 15.03781811 rev/day
Decay rate: 6.35e-06 rev/day^2
Epoch rev: 19067
Checksum: 277
Satellite: MAST
Catalog number: 31126
Epoch time: 10238.57179781
Element set: 947
Inclination: 097.9323 deg
RA of node: 276.9245 deg
Eccentricity: 0.0095221
Arg of perigee: 007.9568 deg
Mean anomaly: 352.3148 deg
Mean motion: 14.53613809 rev/day
Decay rate: 1.24e-06 rev/day^2
Epoch rev: 17828
Checksum: 322
Satellite: CAPE1
Catalog number: 31130
Epoch time: 10237.65793534
Element set: 0969
Inclination: 097.9339 deg
RA of node: 273.3307 deg
Eccentricity: 0.0103068
Arg of perigee: 019.4341 deg
Mean anomaly: 341.0728 deg
Mean motion: 14.52213558 rev/day
Decay rate: 2.13e-06 rev/day^2
Epoch rev: 17774
Checksum: 295
Satellite: COMPASS
Catalog number: 32787
Epoch time: 10238.66109067
Element set: 759
Inclination: 097.8889 deg
RA of node: 302.4299 deg
Eccentricity: 0.0016776
Arg of perigee: 058.0344 deg
Mean anomaly: 302.2531 deg
Mean motion: 14.81945686 rev/day
Decay rate: 1.66e-06 rev/day^2
Epoch rev: 12593
Checksum: 336
Satellite: AAUSAT2
Catalog number: 32788
Epoch time: 10237.64456081
Element set: 0751
Inclination: 097.8889 deg
RA of node: 301.5701 deg
Eccentricity: 0.0016592
Arg of perigee: 062.0672 deg
Mean anomaly: 298.2192 deg
Mean motion: 14.82092659 rev/day
Decay rate: 3.31e-06 rev/day^2
Epoch rev: 12579
Checksum: 321
Satellite: DO-64
Catalog number: 32789
Epoch time: 10238.65853929
Element set: 769
Inclination: 097.8972 deg
RA of node: 303.1267 deg
Eccentricity: 0.0016534
Arg of perigee: 058.2878 deg
Mean anomaly: 301.9959 deg
Mean motion: 14.82272690 rev/day
Decay rate: 5.09e-06 rev/day^2
Epoch rev: 12594
Checksum: 365
Satellite: CO-66
Catalog number: 32791
Epoch time: 10237.14032631
Element set: 0752
Inclination: 097.8919 deg
RA of node: 300.9384 deg
Eccentricity: 0.0017170
Arg of perigee: 061.9043 deg
Mean anomaly: 298.3957 deg
Mean motion: 14.81720012 rev/day
Decay rate: 4.77e-06 rev/day^2
Epoch rev: 12566
Checksum: 307
Satellite: RS-30
Catalog number: 32953
Epoch time: 10238.71839344
Element set: 987
Inclination: 082.5057 deg
RA of node: 345.8182 deg
Eccentricity: 0.0017828
Arg of perigee: 310.9199 deg
Mean anomaly: 049.0334 deg
Mean motion: 12.43007448 rev/day
Decay rate: 1.0e-07 rev/day^2
Epoch rev: 10250
Checksum: 294
Satellite: TACSAT-3
Catalog number: 35001
Epoch time: 10237.92207592
Element set: 0383
Inclination: 040.4561 deg
RA of node: 155.0297 deg
Eccentricity: 0.0020491
Arg of perigee: 171.6889 deg
Mean anomaly: 188.4273 deg
Mean motion: 15.42433977 rev/day
Decay rate: 4.274e-05 rev/day^2
Epoch rev: 07140
Checksum: 296
Satellite: PHARMSAT
Catalog number: 35002
Epoch time: 10237.91819771
Element set: 346
Inclination: 040.4678 deg
RA of node: 152.8263 deg
Eccentricity: 0.0023554
Arg of perigee: 173.9066 deg
Mean anomaly: 186.2053 deg
Mean motion: 15.42890950 rev/day
Decay rate: 3.821e-05 rev/day^2
Epoch rev: 7142
Checksum: 290
Satellite: HAWKSAT1
Catalog number: 35003
Epoch time: 10237.93239047
Element set: 0383
Inclination: 040.4590 deg
RA of node: 145.3319 deg
Eccentricity: 0.0021493
Arg of perigee: 194.2274 deg
Mean anomaly: 165.7997 deg
Mean motion: 15.46646624 rev/day
Decay rate: 8.840e-05 rev/day^2
Epoch rev: 07151
Checksum: 302
Satellite: CP6
Catalog number: 35004
Epoch time: 10237.95140227
Element set: 0369
Inclination: 040.4619 deg
RA of node: 143.6918 deg
Eccentricity: 0.0020736
Arg of perigee: 197.9064 deg
Mean anomaly: 162.1045 deg
Mean motion: 15.47729921 rev/day
Decay rate: 1.1169e-04 rev/day^2
Epoch rev: 07152
Checksum: 295
Satellite: AEROCUB3
Catalog number: 35005
Epoch time: 10238.80122311
Element set: 422
Inclination: 040.4696 deg
RA of node: 131.8709 deg
Eccentricity: 0.0020482
Arg of perigee: 229.7264 deg
Mean anomaly: 130.2227 deg
Mean motion: 15.56264430 rev/day
Decay rate: 4.4611e-04 rev/day^2
Epoch rev: 7173
Checksum: 256
Satellite: CASTOR
Catalog number: 35694
Epoch time: 10230.44082147
Element set: 655
Inclination: 051.5930 deg
RA of node: 222.0149 deg
Eccentricity: 0.0004218
Arg of perigee: 308.0851 deg
Mean anomaly: 053.0105 deg
Mean motion: 16.48877011 rev/day
Decay rate: 7.179566e-02 rev/day^2
Epoch rev: 6110
Checksum: 273
Satellite: METEOR-M
Catalog number: 35865
Epoch time: 10238.71702756
Element set: 597
Inclination: 098.7525 deg
RA of node: 291.9898 deg
Eccentricity: 0.0002519
Arg of perigee: 140.3948 deg
Mean anomaly: 219.7366 deg
Mean motion: 14.21831230 rev/day
Decay rate: 1.76e-06 rev/day^2
Epoch rev: 4874
Checksum: 331
